This demonstration page uses our WeatherBlox Daily Observations layout. Learn more.

Left ArrowRight Arrow

38.20091, -84.87328

Hourly Observations for May 25, 2020

Temp ( °F °C ) Dew Point ( °F °C ) Humidity (%) Winds ( mph kmh ) Pressure ( in mb ) Visibility ( mi km ) Precip ( " mm )
12:53 am 00:53 Clear 69 20.6 64 17.8 84 84 SSE 3 6 29.99 1016 10 16 0.00 0.00
1:53 am 01:53 Clear 69 20.6 64 17.8 84 84 S 6 9 29.99 1016 10 16 0.00 0.00
2:53 am 02:53 Clear 68 20 64 17.8 87 87 SSE 3 6 29.98 1015 10 16 0.00 0.00
3:53 am 03:53 Clear 67 19.4 64 17.8 91 91 Calm 29.97 1015 10 16 0.00 0.00
4:53 am 04:53 Clear 66 18.9 63 17.2 90 90 Calm 29.96 1015 10 16 0.00 0.00
5:53 am 05:53 Clear 65 18.3 63 17.2 93 93 Calm 30.00 1016 10 16 0.00 0.00
6:53 am 06:53 Sunny 65 18.3 62 16.7 90 90 Calm 30.01 1016 10 16 0.00 0.00
7:53 am 07:53 Mostly Cloudy 69 20.6 65 18.3 87 87 Calm 30.04 1017 10 16 0.00 0.00
8:53 am 08:53 Sunny 73 22.8 66 18.9 79 79 SE 3 6 30.05 1018 10 16 0.00 0.00
9:53 am 09:53 Sunny 79 26.1 68 20 69 69 SSW 5 7 30.05 1018 10 16 0.00 0.00
10:53 am 10:53 Sunny 82 27.8 69 20.6 65 65 SSW 6 9 30.04 1017 10 16 0.00 0.00
11:53 am 11:53 Sunny 84 28.9 68 20 59 59 VRB 5 7 30.04 1017 10 16 0.00 0.00
12:53 pm 12:53 Mostly Cloudy 83 28.3 66 18.9 57 57 Calm 30.04 1017 10 16 0.00 0.00
1:12 pm 13:12 Mostly Cloudy with Thunderstorms 83 28.3 67 19.4 59 59 ESE 7 11 30.03 1017 10 16 0.00 0.00
1:53 pm 13:53 Cloudy with Thunderstorms 74 23.3 69 20.6 85 85 E 6 9 30.04 1017 6 10 0.05 1.27
2:04 pm 14:04 Cloudy with Light Rain 75 23.9 69 20.6 82 82 E 3 6 30.02 1017 10 16 0.00 0.00
2:11 pm 14:11 Cloudy with Nearby Thunderstorms 75 23.9 69 20.6 82 82 E 7 11 30.04 1017 10 16 0.00 0.00
2:34 pm 14:34 Mostly Cloudy with Thunderstorms 73 22.8 65 18.3 76 76 SE 10 17 30.03 1017 10 16 0.00 0.00
2:49 pm 14:49 Cloudy 73 23 66 19 78 78 ESE 6 9 30.02 1017 10 16 0.00 0.00
2:53 pm 14:53 Cloudy 74 23.3 67 19.4 79 79 ESE 7 11 30.03 1017 10 16 0.00 0.00
3:45 pm 15:45 Sunny with Nearby Thunderstorms 81 27.2 69 20.6 67 67 ESE 5 7 29.99 1016 10 16 0.00 0.00
3:53 pm 15:53 Partly Cloudy with Nearby Thunderstorms 82 27.8 68 20 63 63 VRB 3 6 30.01 1016 10 16 0.00 0.00
4:08 pm 16:08 Mostly Sunny 82 27.8 67 19.4 60 60 Calm 29.98 1015 10 16 0.00 0.00
4:53 pm 16:53 Mostly Cloudy with Light Rain 75 23.9 67 19.4 76 76 SW 5 7 30.00 1016 8 13 0.00 0.00
5:53 pm 17:53 Sunny 85 29.4 69 20.6 59 59 VRB 5 7 29.98 1015 10 16 0.00 0.00
6:53 pm 18:53 Mostly Sunny 82 27.8 70 21.1 67 67 E 3 6 29.97 1015 10 16 0.00 0.00
7:53 pm 19:53 Mostly Sunny 79 26.1 67 19.4 67 67 SSW 5 7 30.00 1016 10 16 0.00 0.00
8:53 pm 20:53 Clear 77 25 68 20 74 74 SE 3 6 30.01 1016 10 16 0.00 0.00
9:53 pm 21:53 Clear 76 24.4 67 19.4 74 74 S 7 11 30.01 1016 10 16 0.00 0.00
10:53 pm 22:53 Clear 72 22.2 66 18.9 82 82 Calm 30.03 1017 10 16 0.00 0.00
11:53 pm 23:53 Clear 71 21.7 66 18.9 84 84 Calm 30.02 1017 10 16 0.00 0.00

Powered by AerisWeather